{"data":{"norad_id":61566,"intl_designator":"2024-185Q","name":"QIANFAN-33","alt_names":[],"object_type":"PAYLOAD","status":"ACTIVE","operator":null,"country":"PRC","launch_date":"2024-10-15","launch_site_code":"TAISC","launch_vehicle":null,"mission":null,"orbit_class":"UNKNOWN","rcs_meters":null,"size_class":null,"mass_kg":null,"dimensions":null,"purposes":[],"wikipedia_slug":null,"has_3d_model":false,"image_url":null,"decayed_at":null,"tle_current":{"epoch":"2026-09-22T19:52:26.950944Z","epoch_age_seconds":96323,"freshness":"FRESH","line1":"1 61566U 24185Q   26265.82808971  .00000300  00000+0  20667-3 0  9994","line2":"2 61566  88.9837  47.1413 0008755 147.1337 213.0386 13.96754899108812","mean_motion":13.96754899,"eccentricity":0.0008755,"inclination_deg":88.9837,"raan_deg":47.1413,"arg_perigee_deg":147.1337,"mean_anomaly_deg":213.0386,"bstar":0.00020667,"rev_number":10881,"period_min":103.09611235521,"perigee_km":898.67767389745,"apogee_km":911.43054152706,"semimajor_km":7283.1911077123,"source":"CELESTRAK","updated_at":"2026-09-23T09:00:20.906902Z"}}}